AUA592B LIBD-LOWW

Flight info

Callsign AUA592B
Flight time 1h 17m
Altitude 38000
Route BANAV DCT AIOSA DCT UNIPA DCT OBUTI OBUTI2W
Aircraft A320/M-SDE3FGHIRWY/LB1

Departure

Time 2026-04-22 15:04
Airport Bari Karol Wojtyła International Airport (LIBD)

Arrival

Time 2026-04-22 16:22
Airport Vienna International Airport (LOWW)
Time Latitude Longitude Altitude Speed Heading
2026-04-22 14:08 41.13526 16.76345 137 ft 0 kts 159°
2026-04-22 14:52 41.13539 16.76338 136 ft 4 kts 159°
2026-04-22 14:53 41.13564 16.76326 136 ft 2 kts 159°
2026-04-22 14:53 41.13583 16.76313 136 ft 4 kts 124°
2026-04-22 14:53 41.13586 16.76285 136 ft 3 kts 69°
2026-04-22 14:53 41.13577 16.76253 136 ft 3 kts 69°
2026-04-22 14:54 41.13576 16.76250 136 ft 0 kts 69°
2026-04-22 14:58 41.13577 16.76251 136 ft 2 kts 69°
2026-04-22 14:58 41.13588 16.76293 136 ft 5 kts 69°
2026-04-22 14:58 41.13603 16.76346 136 ft 7 kts 70°
2026-04-22 14:58 41.13627 16.76429 136 ft 11 kts 69°
2026-04-22 14:59 41.13657 16.76523 136 ft 12 kts 50°
2026-04-22 14:59 41.13737 16.76566 136 ft 11 kts
2026-04-22 14:59 41.13803 16.76563 135 ft 10 kts 43°
2026-04-22 14:59 41.13839 16.76676 132 ft 18 kts 70°
2026-04-22 15:00 41.13888 16.76846 122 ft 20 kts 71°
2026-04-22 15:00 41.13933 16.77007 123 ft 18 kts 69°
2026-04-22 15:00 41.13975 16.77150 121 ft 13 kts 69°
2026-04-22 15:00 41.14001 16.77246 121 ft 10 kts 70°
2026-04-22 15:01 41.14027 16.77338 137 ft 11 kts 70°
2026-04-22 15:01 41.14088 16.77400 119 ft 9 kts 17°
2026-04-22 15:01 41.14117 16.77410 119 ft 0 kts 16°
2026-04-22 15:02 41.14117 16.77411 119 ft 0 kts 16°
2026-04-22 15:02 41.14156 16.77424 119 ft 10 kts 10°
2026-04-22 15:02 41.14226 16.77395 115 ft 7 kts 320°
2026-04-22 15:02 41.14219 16.77355 115 ft 0 kts 246°
2026-04-22 15:03 41.14208 16.77319 116 ft 20 kts 249°
2026-04-22 15:04 41.14062 16.76802 123 ft 95 kts 249°
2026-04-22 15:04 41.13760 16.75727 217 ft 143 kts 250°
2026-04-22 15:04 41.13423 16.74497 959 ft 141 kts 253°
2026-04-22 15:04 41.13077 16.73268 1810 ft 142 kts 255°
2026-04-22 15:05 41.12728 16.72030 2630 ft 144 kts 255°
2026-04-22 15:05 41.12373 16.70775 3436 ft 148 kts 255°
2026-04-22 15:05 41.11985 16.69393 3930 ft 171 kts 255°
2026-04-22 15:05 41.11543 16.67816 4380 ft 194 kts 255°
2026-04-22 15:06 41.11209 16.66634 4637 ft 210 kts 254°
2026-04-22 15:06 41.10500 16.64078 5328 ft 230 kts 258°
2026-04-22 15:06 41.10462 16.61912 5747 ft 247 kts 288°
2026-04-22 15:06 41.11344 16.59938 6438 ft 255 kts 320°
2026-04-22 15:07 41.12899 16.58897 7310 ft 261 kts 349°
2026-04-22 15:07 41.14737 16.59181 8270 ft 272 kts 21°
2026-04-22 15:07 41.16319 16.60646 9226 ft 283 kts 35°
2026-04-22 15:07 41.17823 16.62371 10190 ft 289 kts 36°
2026-04-22 15:08 41.18838 16.63583 10515 ft 304 kts 37°
2026-04-22 15:08 41.20467 16.65549 10920 ft 327 kts 37°
2026-04-22 15:08 41.22182 16.67623 11572 ft 338 kts 37°
2026-04-22 15:08 41.23945 16.69744 12332 ft 345 kts 37°
2026-04-22 15:09 41.25749 16.71896 13090 ft 353 kts 36°
2026-04-22 15:09 41.27602 16.74090 13835 ft 360 kts 36°
2026-04-22 15:09 41.29495 16.76324 14500 ft 366 kts 36°
2026-04-22 15:09 41.31404 16.78577 15217 ft 370 kts 35°
2026-04-22 15:10 41.33340 16.80864 15963 ft 374 kts 35°
2026-04-22 15:10 41.35296 16.83174 16694 ft 377 kts 34°
2026-04-22 15:10 41.37317 16.85384 17432 ft 375 kts 27°
2026-04-22 15:10 41.39576 16.87086 18093 ft 371 kts 15°
2026-04-22 15:11 41.41979 16.88285 18708 ft 371 kts 11°
2026-04-22 15:11 41.44453 16.89456 19362 ft 373 kts 11°
2026-04-22 15:11 41.46876 16.90607 20014 ft 376 kts 10°
2026-04-22 15:11 41.49380 16.91806 20691 ft 378 kts
2026-04-22 15:12 41.51856 16.93001 21363 ft 380 kts
2026-04-22 15:12 41.54353 16.94157 22037 ft 379 kts
2026-04-22 15:12 41.56875 16.95187 22711 ft 379 kts
2026-04-22 15:12 41.59415 16.96138 23374 ft 379 kts
2026-04-22 15:13 41.61972 16.97054 23953 ft 381 kts
2026-04-22 15:13 41.64537 16.97971 24474 ft 383 kts
2026-04-22 15:13 41.67118 16.98914 24970 ft 386 kts
2026-04-22 15:13 41.69710 16.99884 25451 ft 390 kts
2026-04-22 15:14 41.72286 17.01256 25920 ft 409 kts 14°
2026-04-22 15:14 41.74744 17.03341 26423 ft 429 kts 25°
2026-04-22 15:14 41.77031 17.06007 26867 ft 439 kts 29°
2026-04-22 15:14 41.79313 17.08739 27285 ft 442 kts 28°
2026-04-22 15:15 41.81616 17.11481 27716 ft 444 kts 28°
2026-04-22 15:15 41.83934 17.14234 28125 ft 447 kts 28°
2026-04-22 15:15 41.86275 17.16997 28529 ft 447 kts 26°
2026-04-22 15:15 41.88774 17.19341 28914 ft 431 kts 15°
2026-04-22 15:16 41.91439 17.21006 29310 ft 415 kts
2026-04-22 15:16 41.94171 17.22011 29745 ft 401 kts 356°
2026-04-22 15:16 41.96904 17.22410 30112 ft 389 kts 348°
2026-04-22 15:16 41.99570 17.22250 30425 ft 378 kts 341°
2026-04-22 15:17 42.02119 17.21573 30720 ft 370 kts 334°
2026-04-22 15:17 42.04619 17.20683 31003 ft 373 kts 335°
2026-04-22 15:17 42.07131 17.19788 31279 ft 375 kts 335°
2026-04-22 15:17 42.09662 17.18891 31541 ft 377 kts 335°
2026-04-22 15:18 42.12209 17.17992 31811 ft 379 kts 335°
2026-04-22 15:18 42.14764 17.17091 32176 ft 380 kts 335°
2026-04-22 15:18 42.17326 17.16183 32448 ft 382 kts 335°
2026-04-22 15:18 42.19902 17.15269 32755 ft 383 kts 336°
2026-04-22 15:19 42.22481 17.14353 33092 ft 383 kts 336°
2026-04-22 15:19 42.25063 17.13438 33429 ft 384 kts 336°
2026-04-22 15:19 42.27648 17.12523 33772 ft 384 kts 336°
2026-04-22 15:19 42.30265 17.11592 34113 ft 384 kts 336°
2026-04-22 15:20 42.32853 17.10665 34390 ft 385 kts 336°
2026-04-22 15:20 42.35444 17.09736 34648 ft 387 kts 337°
2026-04-22 15:20 42.38065 17.08796 34773 ft 392 kts 337°
2026-04-22 15:20 42.40715 17.07848 34965 ft 395 kts 337°
2026-04-22 15:21 42.43372 17.06901 35205 ft 396 kts 338°
2026-04-22 15:21 42.46038 17.05952 35475 ft 396 kts 338°
2026-04-22 15:21 42.48709 17.05005 35707 ft 397 kts 338°
2026-04-22 15:21 42.51382 17.04054 35949 ft 397 kts 338°
2026-04-22 15:22 42.56727 17.02135 36036 ft 399 kts 338°
2026-04-22 15:22 42.62106 17.00192 36033 ft 401 kts 338°
2026-04-22 15:23 42.67497 16.98248 36031 ft 401 kts 338°
2026-04-22 15:23 42.72895 16.96298 36032 ft 400 kts 338°
2026-04-22 15:24 42.75544 16.95354 36031 ft 389 kts 338°
2026-04-22 15:24 42.78149 16.94424 36038 ft 385 kts 339°
2026-04-22 15:24 42.83326 16.92542 36032 ft 385 kts 339°
2026-04-22 15:25 42.88504 16.90651 36033 ft 385 kts 339°
2026-04-22 15:25 42.93687 16.88766 36033 ft 386 kts 339°
2026-04-22 15:26 42.98876 16.86880 36046 ft 386 kts 339°
2026-04-22 15:26 43.04062 16.84992 36040 ft 386 kts 339°
2026-04-22 15:27 43.09287 16.83082 36038 ft 386 kts 339°
2026-04-22 15:27 43.14466 16.81182 36045 ft 386 kts 339°
2026-04-22 15:28 43.19656 16.79284 36070 ft 386 kts 339°
2026-04-22 15:28 43.24859 16.77371 36055 ft 388 kts 339°
2026-04-22 15:29 43.30073 16.75445 36047 ft 388 kts 339°
2026-04-22 15:30 43.37022 16.72885 36044 ft 389 kts 339°
2026-04-22 15:30 43.43137 16.70629 36047 ft 390 kts 340°
2026-04-22 15:31 43.48377 16.68689 36032 ft 390 kts 340°
2026-04-22 15:31 43.53622 16.66752 36037 ft 390 kts 340°
2026-04-22 15:32 43.58865 16.64806 36049 ft 390 kts 340°
2026-04-22 15:32 43.64109 16.62851 36058 ft 390 kts 340°
2026-04-22 15:33 43.69351 16.60891 36058 ft 390 kts 340°
2026-04-22 15:33 43.74624 16.58914 36060 ft 390 kts 340°
2026-04-22 15:34 43.79865 16.56952 36086 ft 390 kts 340°
2026-04-22 15:34 43.85106 16.54991 36073 ft 391 kts 340°
2026-04-22 15:35 43.89472 16.53354 36074 ft 391 kts 340°
2026-04-22 15:35 43.95619 16.51044 36089 ft 392 kts 340°
2026-04-22 15:36 44.00888 16.49052 36105 ft 393 kts 340°
2026-04-22 15:36 44.06341 16.47979 36094 ft 400 kts 351°
2026-04-22 15:37 44.11889 16.47520 36120 ft 399 kts 351°
2026-04-22 15:37 44.17437 16.47050 36116 ft 399 kts 351°
2026-04-22 15:38 44.22981 16.46568 36144 ft 399 kts 352°
2026-04-22 15:38 44.31308 16.45848 36135 ft 400 kts 352°
2026-04-22 15:39 44.36861 16.45370 36147 ft 400 kts 352°
2026-04-22 15:39 44.42422 16.44888 36166 ft 401 kts 352°
2026-04-22 15:40 44.47995 16.44402 36163 ft 401 kts 352°
2026-04-22 15:40 44.53572 16.43911 36168 ft 401 kts 352°
2026-04-22 15:41 44.58245 16.43506 36198 ft 402 kts 352°
2026-04-22 15:41 44.63833 16.43030 36177 ft 403 kts 353°
2026-04-22 15:42 44.69429 16.42556 36184 ft 403 kts 353°
2026-04-22 15:42 44.75022 16.42080 36195 ft 405 kts 353°
2026-04-22 15:43 44.80726 16.41577 36206 ft 414 kts 353°
2026-04-22 15:43 44.86481 16.41068 36205 ft 415 kts 353°
2026-04-22 15:44 44.92247 16.40564 36205 ft 415 kts 353°
2026-04-22 15:44 44.98010 16.40062 36230 ft 415 kts 353°
2026-04-22 15:45 45.03770 16.39551 36211 ft 415 kts 354°
2026-04-22 15:45 45.09529 16.39036 36207 ft 415 kts 354°
2026-04-22 15:46 45.15296 16.38526 36201 ft 415 kts 354°
2026-04-22 15:46 45.21099 16.38010 36193 ft 415 kts 354°
2026-04-22 15:47 45.26874 16.37498 36196 ft 416 kts 354°
2026-04-22 15:47 45.32644 16.36984 36199 ft 415 kts 354°
2026-04-22 15:48 45.38408 16.36464 36204 ft 415 kts 354°
2026-04-22 15:48 45.44175 16.35941 36209 ft 415 kts 354°
2026-04-22 15:49 45.49945 16.35422 36201 ft 416 kts 354°
2026-04-22 15:49 45.55719 16.34906 36196 ft 416 kts 354°
2026-04-22 15:50 45.61493 16.34391 36197 ft 416 kts 354°
2026-04-22 15:50 45.67275 16.33874 36195 ft 416 kts 354°
2026-04-22 15:51 45.73050 16.33348 36191 ft 416 kts 354°
2026-04-22 15:51 45.78828 16.32820 36191 ft 416 kts 354°
2026-04-22 15:52 45.84603 16.32299 36189 ft 416 kts 355°
2026-04-22 15:52 45.90374 16.31776 36193 ft 415 kts 355°
2026-04-22 15:53 45.96145 16.31248 36197 ft 415 kts 355°
2026-04-22 15:53 46.01913 16.30713 36205 ft 415 kts 355°
2026-04-22 15:54 46.07726 16.30183 36198 ft 416 kts 355°
2026-04-22 15:54 46.13499 16.29650 36193 ft 416 kts 355°
2026-04-22 15:55 46.19278 16.29121 36194 ft 416 kts 355°
2026-04-22 15:55 46.25046 16.28587 36199 ft 416 kts 355°
2026-04-22 15:56 46.30835 16.28046 36193 ft 416 kts 355°
2026-04-22 15:56 46.36610 16.27510 36190 ft 416 kts 356°
2026-04-22 15:57 46.42343 16.26347 36166 ft 416 kts 351°
2026-04-22 15:57 46.45209 16.25671 35741 ft 417 kts 351°
2026-04-22 15:57 46.48043 16.25000 35473 ft 407 kts 351°
2026-04-22 15:58 46.50804 16.24344 35097 ft 400 kts 351°
2026-04-22 15:58 46.53545 16.23692 34729 ft 398 kts 351°
2026-04-22 15:58 46.56273 16.23041 34199 ft 398 kts 351°
2026-04-22 15:58 46.59000 16.22389 33597 ft 395 kts 351°
2026-04-22 15:59 46.61699 16.21744 33076 ft 392 kts 351°
2026-04-22 15:59 46.64379 16.21106 32544 ft 388 kts 351°
2026-04-22 15:59 46.67036 16.20478 32016 ft 386 kts 352°
2026-04-22 15:59 46.69725 16.19847 31492 ft 397 kts 352°
2026-04-22 16:00 46.72451 16.19201 30959 ft 397 kts 352°
2026-04-22 16:00 46.75169 16.18553 30432 ft 394 kts 352°
2026-04-22 16:00 46.77861 16.17908 29852 ft 390 kts 352°
2026-04-22 16:00 46.80530 16.17264 29346 ft 387 kts 352°
2026-04-22 16:01 46.83175 16.16624 28841 ft 384 kts 352°
2026-04-22 16:01 46.85801 16.15990 28343 ft 381 kts 352°
2026-04-22 16:01 46.88436 16.15357 27855 ft 378 kts 352°
2026-04-22 16:01 46.91022 16.14738 27373 ft 375 kts 352°
2026-04-22 16:02 46.93583 16.14125 26899 ft 370 kts 352°
2026-04-22 16:02 46.96096 16.13520 26595 ft 361 kts 352°
2026-04-22 16:02 46.98529 16.12931 26451 ft 348 kts 352°
2026-04-22 16:02 47.00870 16.12359 26154 ft 333 kts 352°
2026-04-22 16:03 47.03123 16.11811 25661 ft 325 kts 353°
2026-04-22 16:03 47.05338 16.11277 25068 ft 320 kts 353°
2026-04-22 16:03 47.07526 16.10749 24467 ft 317 kts 353°
2026-04-22 16:03 47.09686 16.10230 23879 ft 315 kts 353°
2026-04-22 16:04 47.11848 16.09712 23349 ft 313 kts 353°
2026-04-22 16:04 47.13998 16.09193 22905 ft 313 kts 353°
2026-04-22 16:04 47.16139 16.08675 22473 ft 311 kts 353°
2026-04-22 16:04 47.18266 16.08163 22038 ft 309 kts 353°
2026-04-22 16:05 47.19667 16.07824 21748 ft 308 kts 353°
2026-04-22 16:05 47.22484 16.07137 21170 ft 306 kts 353°
2026-04-22 16:05 47.24583 16.06627 20732 ft 305 kts 353°
2026-04-22 16:05 47.26676 16.06117 20298 ft 304 kts 353°
2026-04-22 16:06 47.28761 16.05602 19881 ft 304 kts 353°
2026-04-22 16:06 47.30821 16.05092 19554 ft 299 kts 353°
2026-04-22 16:06 47.32888 16.04585 19144 ft 298 kts 353°
2026-04-22 16:06 47.34909 16.04108 18702 ft 291 kts 356°
2026-04-22 16:07 47.36915 16.04066 18161 ft 287 kts
2026-04-22 16:07 47.38872 16.04597 17762 ft 285 kts 17°
2026-04-22 16:07 47.40746 16.05516 17389 ft 284 kts 19°
2026-04-22 16:07 47.42611 16.06442 17017 ft 282 kts 19°
2026-04-22 16:08 47.44470 16.07359 16649 ft 281 kts 19°
2026-04-22 16:08 47.46345 16.08283 16277 ft 280 kts 19°
2026-04-22 16:08 47.48158 16.09178 15916 ft 279 kts 19°
2026-04-22 16:08 47.50030 16.10109 15542 ft 279 kts 19°
2026-04-22 16:09 47.51869 16.11023 15180 ft 279 kts 19°
2026-04-22 16:09 47.53700 16.11934 14884 ft 276 kts 19°
2026-04-22 16:09 47.55513 16.12837 14494 ft 277 kts 19°
2026-04-22 16:09 47.57322 16.13737 14295 ft 271 kts 19°
2026-04-22 16:10 47.59094 16.14620 14000 ft 267 kts 19°
2026-04-22 16:10 47.60846 16.15491 13487 ft 265 kts 19°
2026-04-22 16:10 47.62006 16.16067 13150 ft 265 kts 18°
2026-04-22 16:10 47.64336 16.17227 12657 ft 264 kts 18°
2026-04-22 16:11 47.66071 16.18093 12307 ft 263 kts 18°
2026-04-22 16:11 47.67799 16.18957 11968 ft 261 kts 18°
2026-04-22 16:11 47.69518 16.19813 11625 ft 260 kts 18°
2026-04-22 16:11 47.71235 16.20669 11192 ft 262 kts 18°
2026-04-22 16:12 47.72962 16.21534 10875 ft 259 kts 18°
2026-04-22 16:12 47.74670 16.22391 10460 ft 261 kts 18°
2026-04-22 16:12 47.76313 16.23492 10162 ft 257 kts 30°
2026-04-22 16:12 47.77722 16.25094 10075 ft 256 kts 42°
2026-04-22 16:13 47.78946 16.27019 9969 ft 254 kts 44°
2026-04-22 16:13 47.80125 16.28903 9740 ft 247 kts 44°
2026-04-22 16:13 47.81299 16.30774 9317 ft 247 kts 44°
2026-04-22 16:13 47.82467 16.32631 8996 ft 244 kts 44°
2026-04-22 16:14 47.83248 16.33873 8780 ft 242 kts 44°
2026-04-22 16:14 47.84393 16.35698 8492 ft 241 kts 44°
2026-04-22 16:14 47.85533 16.37520 8193 ft 240 kts 44°
2026-04-22 16:14 47.86668 16.39332 7907 ft 239 kts 43°
2026-04-22 16:15 47.87773 16.41180 7604 ft 240 kts 50°
2026-04-22 16:15 47.88568 16.43380 7303 ft 245 kts 66°
2026-04-22 16:15 47.89044 16.45822 7004 ft 246 kts 70°
2026-04-22 16:15 47.89506 16.48285 6692 ft 246 kts 70°
2026-04-22 16:16 47.89968 16.50734 6383 ft 245 kts 70°
2026-04-22 16:16 47.90427 16.53164 5964 ft 242 kts 70°
2026-04-22 16:16 47.90879 16.55569 5351 ft 241 kts 70°
2026-04-22 16:16 47.91321 16.57958 4747 ft 239 kts 70°
2026-04-22 16:17 47.91765 16.60356 4220 ft 240 kts 70°
2026-04-22 16:17 47.92188 16.62659 4058 ft 219 kts 70°
2026-04-22 16:17 47.92852 16.64525 3928 ft 195 kts 37°
2026-04-22 16:17 47.94020 16.65251 3797 ft 178 kts 357°
2026-04-22 16:18 47.95221 16.64820 3478 ft 180 kts 344°
2026-04-22 16:18 47.96437 16.64337 3199 ft 182 kts 346°
2026-04-22 16:18 47.97651 16.63848 2966 ft 179 kts 345°
2026-04-22 16:18 47.98813 16.63366 2707 ft 167 kts 345°
2026-04-22 16:19 47.99889 16.62915 2470 ft 155 kts 345°
2026-04-22 16:19 48.00903 16.62489 2267 ft 149 kts 346°
2026-04-22 16:19 48.01856 16.62088 2079 ft 136 kts 346°
2026-04-22 16:19 48.02748 16.61712 1895 ft 131 kts 345°
2026-04-22 16:20 48.03616 16.61347 1720 ft 129 kts 345°
2026-04-22 16:20 48.04478 16.60983 1541 ft 129 kts 345°
2026-04-22 16:20 48.05333 16.60621 1369 ft 127 kts 345°
2026-04-22 16:20 48.06189 16.60264 1184 ft 129 kts 345°
2026-04-22 16:21 48.07050 16.59897 1016 ft 130 kts 344°
2026-04-22 16:21 48.07923 16.59529 829 ft 128 kts 343°
2026-04-22 16:21 48.08780 16.59169 660 ft 128 kts 343°
2026-04-22 16:21 48.09571 16.58835 612 ft 97 kts 345°
2026-04-22 16:22 48.10338 16.58509 616 ft 37 kts 345°
2026-04-22 16:22 48.10551 16.58421 614 ft 26 kts 343°
2026-04-22 16:22 48.10702 16.58312 618 ft 23 kts 323°
2026-04-22 16:23 48.10890 16.58036 614 ft 14 kts 314°
2026-04-22 16:23 48.10977 16.57962 618 ft 16 kts 345°
2026-04-22 16:23 48.11090 16.57913 617 ft 18 kts 343°
2026-04-22 16:24 48.11215 16.57860 621 ft 20 kts 345°
2026-04-22 16:24 48.11484 16.57746 622 ft 20 kts 343°
2026-04-22 16:24 48.11617 16.57690 621 ft 20 kts 345°
2026-04-22 16:25 48.11746 16.57637 614 ft 18 kts 344°
2026-04-22 16:25 48.11820 16.57464 610 ft 16 kts 253°
2026-04-22 16:25 48.11824 16.57304 618 ft 17 kts 296°
2026-04-22 16:26 48.11876 16.57142 621 ft 18 kts 295°
2026-04-22 16:26 48.11907 16.56984 620 ft 15 kts 289°
2026-04-22 16:26 48.11907 16.56910 610 ft 6 kts 212°
2026-04-22 16:26 48.11871 16.56883 610 ft 5 kts 206°
2026-04-22 16:27 48.11864 16.56878 610 ft 0 kts 206°